Location: Newark
(42.8481°N, 0.4872°E)
Time: 09:23:48
(UTC+00:00)

A-11 Canister half - Pass Details

Date: 02 November 2020
Orbit: 1516 x 1684 km, 47.2° (Epoch: 04 December)

Event Time Altitude Azimuth Distance (km) Brightness Sun altitude
Rises 22:49:22 0° 286° (WNW) 4,923 11.9 -60.1°
Reaches altitude 10° 22:52:35 10° 288° (WNW) 3,922 11.3 -60.3°
Enters shadow 22:52:45 11° 288° (WNW) 3,866 11.3 -60.4°
